This demonstration page uses our WeatherBlox Daily Observations layout. Learn more.

41.55636, -103.73856

Hourly Observations for June 17, 2020

Temp ( °F °C ) Dew Point ( °F °C ) Humidity (%) Winds ( mph kmh ) Pressure ( in mb ) Visibility ( mi km ) Precip ( " mm )
12:59 am 00:59 Clear 90 32.4 33 0.5 13 13 S 20 31 29.53 1000 10 16.0934 0 0
1:58 am 01:58 Mostly Clear 86 30 39 3.8 19 19 SSE 24 39 29.54 1000 10 16.0934 0 0
2:58 am 02:58 Mostly Cloudy with Haze 85 29.5 40 4.4 20 20 SSE 36 57 29.54 1000 6 9.65604 0 0
3:58 am 03:58 Mostly Cloudy 81 27.4 42 5.4 25 25 SSE 31 50 29.55 1001 10 16.0934 0 0
4:58 am 04:58 Windy with Rain Showers Likely 80 26.9 38 3.3 22 22 SSW 21 33 29.59 1002 10 16.0934 0 0
5:58 am 05:58 Mostly Clear 70 21.1 38 3.2 31 31 W 13 20 29.67 1005 10 16.0934 0 0
6:58 am 06:58 Partly Cloudy 64 17.6 42 5.6 45 45 W 13 20 29.67 1005 10 16.0934 0 0
7:58 am 07:58 Clear 60 15.7 44 6.6 55 55 WNW 12 19 29.66 1004 10 16.0934 0 0
8:58 am 08:58 Clear 57 13.9 43 6.2 60 60 W 8 13 29.67 1005 10 16.0934 0 0
9:58 am 09:58 Clear 56 13.1 43 6.2 63 63 W 7 11 29.66 1004 10 16.0934 0 0
10:58 am 10:58 Clear 53 11.4 42 5.8 69 69 WSW 7 11 29.67 1005 10 16.0934 0 0
11:58 am 11:58 Sunny 51 10.7 42 5.7 71 71 W 7 11 29.67 1005 10 16.0934 0 0
12:58 pm 12:58 Sunny 55 12.8 44 6.7 67 67 Calm 29.68 1005 10 16.0934 0 0
1:58 pm 13:58 Sunny 62 16.6 44 6.9 53 53 WNW 8 13 29.69 1005 10 16.0934 0 0
2:58 pm 14:58 Sunny 68 19.8 46 7.9 46 46 WNW 7 11 29.67 1005 10 16.0934 0 0
3:58 pm 15:58 Sunny 73 23 46 7.6 37 37 NW 7 11 29.67 1005 10 16.0934 0 0
4:58 pm 16:58 Sunny 80 26.7 43 6.2 27 27 NNW 8 13 29.64 1004 10 16.0934 0 0
5:58 pm 17:58 Sunny 84 28.9 39 4.1 21 21 ESE 5 7 29.66 1004 10 16.0934 0 0
6:58 pm 18:58 Sunny 87 30.8 43 6.3 21 21 E 8 13 29.67 1005 10 16.0934 0 0
7:58 pm 19:58 Sunny 88 31.3 41 5.2 19 19 E 5 7 29.67 1005 10 16.0934 0 0
8:58 pm 20:58 Sunny 87 30.4 41 5.1 20 20 N 14 22 29.69 1006 10 16.0934 0 0
9:58 pm 21:58 Sunny 86 29.8 40 4.2 20 20 N 16 26 29.69 1006 10 16.0934 0 0
10:58 pm 22:58 Sunny 88 31 38 3.5 17 17 NNE 16 26 29.68 1005 10 16.0934 0 0
11:58 pm 23:58 Sunny 85 29.3 47 8.2 27 27 NNE 20 31 29.68 1005 10 16.0934 0 0

Powered by AerisWeather